Hourly Weather Rumsko

Today, 16 April, Friday

Time Temperature Precipitation Wind Pressure Humidity
00:00 0°C° 0 mm 7 mps 765 mmHg 83%
01:00 0°C° 0 mm 7 mps 764 mmHg 84%
02:00 0°C° 0 mm 7 mps 764 mmHg 83%
03:00 0°C° 0 mm 7 mps 764 mmHg 83%
04:00 +2°C° 0 mm 7 mps 764 mmHg 83%
05:00 +2°C° 0 mm 7 mps 764 mmHg 82%
06:00 +2°C° 0 mm 7 mps 764 mmHg 81%
07:00 +2°C° 0 mm 7 mps 764 mmHg 81%
08:00 +2°C° 0.1 mm 7 mps 764 mmHg 85%
09:00 +2°C° 0.1 mm 7 mps 764 mmHg 89%
10:00 +1°C° 0.1 mm 6 mps 764 mmHg 94%
11:00 +2°C° 0 mm 6 mps 764 mmHg 91%
12:00 +2°C° 0 mm 6 mps 764 mmHg 88%
13:00 +3°C° 0 mm 6 mps 764 mmHg 86%
14:00 +2°C° 0 mm 6 mps 763 mmHg 87%
15:00 +2°C° 0 mm 6 mps 763 mmHg 88%
16:00 +2°C° 0 mm 6 mps 763 mmHg 90%
17:00 +2°C° 0.1 mm 6 mps 763 mmHg 91%
18:00 +2°C° 0.1 mm 5 mps 763 mmHg 92%
19:00 +2°C° 0.1 mm 5 mps 763 mmHg 93%
20:00 +2°C° 0.1 mm 5 mps 763 mmHg 94%
21:00 +2°C° 0.1 mm 5 mps 763 mmHg 96%
22:00 +4°C° 0.1 mm 4 mps 763 mmHg 97%
23:00 +4°C° 0 mm 4 mps 763 mmHg 97%

Tomorrow, 17 April, Saturday

Time Temperature Precipitation Wind Pressure Humidity
00:00 +4°C° 0 mm 3 mps 763 mmHg 97%
01:00 +4°C° 0 mm 3 mps 763 mmHg 97%
02:00 +4°C° 0 mm 3 mps 763 mmHg 97%
03:00 +4°C° 0 mm 3 mps 763 mmHg 97%
04:00 +5°C° 0 mm 3 mps 763 mmHg 96%
05:00 +5°C° 0 mm 3 mps 763 mmHg 95%
06:00 +5°C° 0 mm 4 mps 764 mmHg 94%
07:00 +5°C° 0 mm 4 mps 764 mmHg 93%
08:00 +6°C° 0 mm 4 mps 764 mmHg 90%
09:00 +7°C° 0 mm 4 mps 764 mmHg 87%
10:00 +7°C° 0 mm 5 mps 764 mmHg 85%
11:00 +7°C° 0 mm 4 mps 764 mmHg 86%
12:00 +7°C° 0 mm 4 mps 764 mmHg 87%
13:00 +7°C° 0 mm 4 mps 764 mmHg 89%
14:00 +8°C° 0 mm 4 mps 764 mmHg 85%
15:00 +10°C° 0 mm 4 mps 764 mmHg 81%
16:00 +9°C° 0 mm 5 mps 763 mmHg 78%
17:00 +10°C° 0 mm 4 mps 764 mmHg 80%
18:00 +8°C° 0 mm 4 mps 764 mmHg 83%
19:00 +8°C° 0 mm 4 mps 764 mmHg 86%
20:00 +7°C° 0 mm 4 mps 764 mmHg 87%
21:00 +7°C° 0 mm 4 mps 764 mmHg 88%
22:00 +7°C° 0 mm 3 mps 764 mmHg 90%
23:00 +7°C° 0 mm 3 mps 764 mmHg 91%

Day after tomorrow, 18 April, Sunday

Time Temperature Precipitation Wind Pressure Humidity
00:00 +5°C° 0 mm 3 mps 764 mmHg 93%
01:00 +5°C° 0 mm 3 mps 764 mmHg 95%
02:00 +5°C° 0 mm 3 mps 764 mmHg 95%
03:00 +5°C° 0 mm 3 mps 764 mmHg 95%
04:00 +5°C° 0 mm 3 mps 764 mmHg 95%
05:00 +5°C° 0 mm 3 mps 764 mmHg 92%
06:00 +7°C° 0 mm 3 mps 764 mmHg 89%
07:00 +7°C° 0 mm 4 mps 764 mmHg 86%
08:00 +10°C° 0 mm 4 mps 764 mmHg 80%
09:00 +11°C° 0 mm 4 mps 764 mmHg 75%
10:00 +12°C° 0 mm 5 mps 764 mmHg 69%
11:00 +13°C° 0 mm 5 mps 764 mmHg 68%
12:00 +13°C° 0 mm 5 mps 764 mmHg 67%
13:00 +14°C° 0 mm 6 mps 764 mmHg 66%
14:00 +13°C° 0.1 mm 5 mps 763 mmHg 66%
15:00 +13°C° 0.1 mm 5 mps 763 mmHg 67%
16:00 +13°C° 0.1 mm 5 mps 763 mmHg 67%
17:00 +12°C° 0 mm 5 mps 763 mmHg 72%
18:00 +11°C° 0 mm 4 mps 763 mmHg 78%
19:00 +8°C° 0 mm 4 mps 764 mmHg 83%
20:00 +9°C° 0 mm 3 mps 764 mmHg 84%
21:00 +8°C° 0 mm 3 mps 764 mmHg 85%
22:00 +7°C° 0 mm 3 mps 764 mmHg 87%
23:00 +7°C° 0 mm 3 mps 763 mmHg 87%

19 April, Monday

Time Temperature Precipitation Wind Pressure Humidity
00:00 +7°C° 0 mm 3 mps 763 mmHg 87%
01:00 +7°C° 0 mm 3 mps 763 mmHg 87%
02:00 +7°C° 0 mm 3 mps 763 mmHg 86%
03:00 +8°C° 0 mm 3 mps 763 mmHg 86%
04:00 +8°C° 0 mm 3 mps 763 mmHg 85%
05:00 +8°C° 0 mm 3 mps 763 mmHg 83%
06:00 +9°C° 0 mm 3 mps 763 mmHg 82%
07:00 +9°C° 0 mm 3 mps 763 mmHg 80%
08:00 +10°C° 0 mm 3 mps 763 mmHg 76%
09:00 +11°C° 0 mm 4 mps 763 mmHg 71%
10:00 +12°C° 0 mm 4 mps 763 mmHg 66%
11:00 +13°C° 0 mm 4 mps 763 mmHg 61%
12:00 +14°C° 0 mm 5 mps 763 mmHg 55%
13:00 +15°C° 0 mm 5 mps 763 mmHg 49%
14:00 +14°C° 0 mm 5 mps 763 mmHg 49%
15:00 +14°C° 0 mm 5 mps 762 mmHg 49%
16:00 +14°C° 0 mm 5 mps 762 mmHg 49%
17:00 +13°C° 0 mm 5 mps 762 mmHg 54%
18:00 +11°C° 0 mm 4 mps 762 mmHg 59%
19:00 +10°C° 0 mm 4 mps 762 mmHg 65%
20:00 +10°C° 0 mm 4 mps 762 mmHg 69%
21:00 +8°C° 0 mm 4 mps 762 mmHg 73%
22:00 +8°C° 0 mm 3 mps 762 mmHg 77%
23:00 +8°C° 0 mm 3 mps 762 mmHg 79%

20 April, Tuesday

Time Temperature Precipitation Wind Pressure Humidity
00:00 +8°C° 0 mm 3 mps 762 mmHg 80%
01:00 +8°C° 0 mm 3 mps 762 mmHg 82%
02:00 +7°C° 0 mm 2 mps 762 mmHg 83%
03:00 +7°C° 0 mm 2 mps 762 mmHg 84%
04:00 +6°C° 0 mm 2 mps 762 mmHg 85%
05:00 +7°C° 0 mm 2 mps 762 mmHg 81%
06:00 +8°C° 0 mm 2 mps 762 mmHg 77%
07:00 +9°C° 0 mm 2 mps 762 mmHg 73%
08:00 +10°C° 0 mm 3 mps 761 mmHg 66%
09:00 +12°C° 0 mm 3 mps 761 mmHg 58%
10:00 +13°C° 0 mm 3 mps 761 mmHg 50%
11:00 +13°C° 0 mm 4 mps 761 mmHg 50%
12:00 +13°C° 0 mm 4 mps 761 mmHg 50%
13:00 +13°C° 0 mm 4 mps 761 mmHg 51%
14:00 +13°C° 0 mm 4 mps 760 mmHg 51%
15:00 +12°C° 0 mm 4 mps 760 mmHg 52%
16:00 +12°C° 0 mm 4 mps 760 mmHg 52%
17:00 +11°C° 0 mm 3 mps 760 mmHg 58%
18:00 +9°C° 0 mm 3 mps 759 mmHg 64%
19:00 +7°C° 0 mm 2 mps 759 mmHg 70%
20:00 +7°C° 0 mm 2 mps 759 mmHg 72%
21:00 +7°C° 0 mm 1 mps 759 mmHg 74%
22:00 +6°C° 0 mm 1 mps 759 mmHg 76%
23:00 +6°C° 0 mm 1 mps 759 mmHg 77%

21 April, Wednesday

Time Temperature Precipitation Wind Pressure Humidity
00:00 +6°C° 0 mm 1 mps 758 mmHg 78%
01:00 +5°C° 0 mm 2 mps 758 mmHg 79%
02:00 +4°C° 0 mm 2 mps 758 mmHg 82%
03:00 +4°C° 0 mm 2 mps 758 mmHg 85%
04:00 +4°C° 0 mm 2 mps 757 mmHg 88%
05:00 +5°C° 0 mm 2 mps 757 mmHg 82%
06:00 +6°C° 0 mm 2 mps 757 mmHg 77%
07:00 +8°C° 0 mm 2 mps 757 mmHg 71%
08:00 +9°C° 0 mm 2 mps 757 mmHg 63%
09:00 +10°C° 0 mm 3 mps 757 mmHg 55%
10:00 +12°C° 0 mm 3 mps 756 mmHg 47%
11:00 +12°C° 0 mm 3 mps 756 mmHg 46%
12:00 +12°C° 0 mm 4 mps 756 mmHg 45%
13:00 +12°C° 0 mm 4 mps 756 mmHg 44%
14:00 +12°C° 0 mm 4 mps 755 mmHg 44%
15:00 +12°C° 0 mm 4 mps 755 mmHg 45%
16:00 +12°C° 0 mm 4 mps 755 mmHg 45%
17:00 +10°C° 0 mm 3 mps 754 mmHg 53%
18:00 +9°C° 0 mm 2 mps 754 mmHg 61%
19:00 +7°C° 0 mm 2 mps 754 mmHg 69%
20:00 +7°C° 0 mm 2 mps 754 mmHg 70%
21:00 +6°C° 0 mm 2 mps 754 mmHg 72%
22:00 +6°C° 0 mm 2 mps 754 mmHg 74%
23:00 +6°C° 0 mm 1 mps 753 mmHg 76%
Show more